South Beach, OR

2:32 PM PST on February 23, 2017 (GMT -0800)
Newport Municipal

Weather History for KONP - September, 2013

Change the Weather History Date:

Sunday, September 22, 2013

  Actual Average Record
Temperature  
Mean Temperature 57 °F -  
Max Temperature 59 °F 61 °F 77 °F (2002)
Min Temperature 55 °F 48 °F 35 °F (2005)
Degree Days  
Heating Degree Days 8    
Growing Degree Days 7 (Base 50)    
Moisture  
Dew Point 56 °F    
Average Humidity 95    
Maximum Humidity 100    
Minimum Humidity 88    
Precipitation  
Precipitation 0.28 in - - ()
Sea Level Pressure  
Sea Level Pressure 29.82 in    
Wind  
Wind Speed 15 mph (South)    
Max Wind Speed 33 mph    
Max Gust Speed 51 mph    
Visibility 5 miles    
Events Rain    
Averages and records for this station are not official NWS values.
T = Trace of Precipitation, MM = Missing Value Source: NWS Daily Summary

Daily Weather History Graph

Daily Weather History Graph

Search for Another Location

Airport or City:

Trip Planner

Search our weather history database for the weather conditions in past years. The results will help you decide how hot, cold, wet, or windy it might be!

Date:

Astronomy

Sep. 22, 2013 Rise Set
Actual Time 7:03 AM PDT 7:13 PM PDT
Civil Twilight 6:34 AM PDT 7:42 PM PDT
Nautical Twilight 6:00 AM PDT 8:16 PM PDT
Astronomical Twilight 5:25 AM PDT 8:51 PM PDT
Moon 8:56 PM PDT (9/22) 10:39 AM PDT (9/22)
Length of Visible Light 13h 07m
Length of Day
12h 09m
Waning Gibbous, 88% of the Moon is Illuminated
Sep 22
Waning Gibbous
Sep 26
Last Quarter
Oct 4
New
Oct 11
First Quarter
Oct 18
Full

Hourly Weather History & Observations

Time (PDT) Temp. Dew Point Humidity Pressure Visibility Wind Dir Wind Speed Gust Speed Precip Events Conditions
12:15 AM 55.4 °F 55.4 °F 100% 29.84 in 10.0 mi South 5.8 mph - N/A   Overcast
12:35 AM 55.4 °F 53.6 °F 94% 29.84 in 10.0 mi South 6.9 mph - N/A   Overcast
12:55 AM 55.4 °F 55.4 °F 100% 29.85 in 10.0 mi SSW 11.5 mph - N/A   Overcast
1:15 AM 55.4 °F 53.6 °F 94% 29.85 in 7.0 mi South 6.9 mph - 0.01 in Rain Light Rain
1:35 AM 55.4 °F 53.6 °F 94% 29.85 in 10.0 mi South 6.9 mph - 0.01 in   Overcast
1:55 AM 55.4 °F 53.6 °F 94% 29.84 in 10.0 mi South 6.9 mph - 0.01 in   Scattered Clouds
2:15 AM 55.4 °F 55.4 °F 100% 29.84 in 7.0 mi South 8.1 mph - N/A   Mostly Cloudy
2:35 AM 55.4 °F 55.4 °F 100% 29.85 in 7.0 mi South 9.2 mph - N/A   Scattered Clouds
2:55 AM 55.4 °F 55.4 °F 100% 29.84 in 7.0 mi South 9.2 mph - N/A   Scattered Clouds
3:15 AM 55.4 °F 55.4 °F 100% 29.84 in 7.0 mi South 10.4 mph - N/A   Clear
3:35 AM 55.4 °F 55.4 °F 100% 29.84 in 7.0 mi South 9.2 mph - N/A   Clear
3:55 AM 55.4 °F 55.4 °F 100% 29.84 in 7.0 mi South 10.4 mph 16.1 mph N/A   Scattered Clouds
4:15 AM 57.2 °F 55.4 °F 94% 29.83 in 7.0 mi South 10.4 mph - N/A   Scattered Clouds
4:35 AM 57.2 °F 55.4 °F 94% 29.83 in 7.0 mi South 10.4 mph - N/A   Overcast
4:55 AM 57.2 °F 55.4 °F 94% 29.83 in 7.0 mi South 12.7 mph - N/A   Overcast
5:15 AM 57.2 °F 55.4 °F 94% 29.82 in 7.0 mi South 16.1 mph 21.9 mph N/A   Overcast
5:35 AM 57.2 °F 55.4 °F 94% 29.82 in 7.0 mi South 17.3 mph 23.0 mph N/A Rain Light Rain
5:55 AM 57.2 °F 55.4 °F 94% 29.82 in 7.0 mi South 18.4 mph 25.3 mph N/A Rain Light Rain
6:15 AM 55.4 °F 55.4 °F 100% 29.82 in 7.0 mi South 18.4 mph 26.5 mph N/A   Overcast
6:35 AM 55.4 °F 55.4 °F 100% - 7.0 mi South 20.7 mph 27.6 mph N/A Rain Rain
6:55 AM 55.4 °F 55.4 °F 100% 29.81 in 7.0 mi South 19.6 mph 27.6 mph N/A Rain Light Rain
7:15 AM 55.4 °F 55.4 °F 100% 29.80 in 7.0 mi South 21.9 mph 29.9 mph N/A Rain Light Rain
7:35 AM 55.4 °F 53.6 °F 94% 29.80 in 10.0 mi South 19.6 mph 27.6 mph N/A   Overcast
7:55 AM 57.2 °F 55.4 °F 94% 29.80 in 7.0 mi South 23.0 mph 27.6 mph N/A   Overcast
8:15 AM 57.2 °F 53.6 °F 88% 29.79 in 7.0 mi South 20.7 mph 27.6 mph N/A   Overcast
8:35 AM 57.2 °F 53.6 °F 88% 29.79 in 7.0 mi South 23.0 mph 32.2 mph N/A   Overcast
8:55 AM 57.2 °F 55.4 °F 94% 29.79 in 4.0 mi South 19.6 mph 34.5 mph N/A   Drizzle
9:15 AM 57.2 °F 55.4 °F 94% 29.79 in 5.0 mi South 23.0 mph 36.8 mph N/A   Overcast
9:35 AM 55.4 °F 53.6 °F 94% 29.79 in 4.0 mi South 20.7 mph 35.7 mph N/A Rain Light Rain
9:55 AM 57.2 °F 55.4 °F 94% 29.78 in 5.0 mi South 23.0 mph 34.5 mph N/A   Light Drizzle
10:15 AM 57.2 °F 53.6 °F 88% 29.77 in 3.0 mi South 24.2 mph 38.0 mph N/A Rain Light Rain
10:35 AM 57.2 °F 53.6 °F 88% 29.77 in 4.0 mi South 24.2 mph 39.1 mph N/A Rain Rain
10:55 AM 55.4 °F 53.6 °F 94% 29.77 in 3.0 mi South 27.6 mph 40.3 mph 0.01 in Rain Light Rain
11:15 AM 55.4 °F 53.6 °F 94% 29.76 in 3.0 mi South 26.5 mph 40.3 mph N/A Rain Light Rain
11:35 AM 55.4 °F 53.6 °F 94% 29.75 in 4.0 mi South 26.5 mph 42.6 mph N/A Rain Light Rain
11:55 AM 55.4 °F 53.6 °F 94% 29.75 in 2.5 mi South 29.9 mph 41.4 mph N/A Rain Light Rain
12:15 PM 55.4 °F 53.6 °F 94% 29.73 in 1.8 mi South 32.2 mph 47.2 mph 0.04 in Rain Rain
12:35 PM 55.4 °F 53.6 °F 94% 29.73 in 1.5 mi South 32.2 mph 42.6 mph 0.08 in Rain Rain
12:55 PM 55.4 °F 55.4 °F 100% 29.72 in 1.8 mi South 32.2 mph 44.9 mph 0.11 in Rain Light Rain
1:15 PM 55.4 °F 53.6 °F 94% 29.72 in 1.8 mi South 31.1 mph 42.6 mph 0.02 in Rain Rain
1:35 PM 55.4 °F 55.4 °F 100% 29.75 in 1.2 mi South 32.2 mph 44.9 mph 0.05 in Rain Rain
1:55 PM 55.4 °F 55.4 °F 100% 29.75 in 2.0 mi South 33.4 mph 50.6 mph 0.07 in Rain Rain
2:15 PM 55.4 °F 55.4 °F 100% 29.75 in 1.2 mi SSW 33.4 mph 46.0 mph 0.03 in Rain Rain
2:35 PM 57.2 °F 55.4 °F 94% 29.77 in 1.2 mi SSW 31.1 mph 40.3 mph 0.05 in Rain Rain
2:55 PM 57.2 °F 55.4 °F 94% 29.79 in 1.8 mi SSW 28.8 mph 46.0 mph 0.07 in Rain Light Rain
3:15 PM 59.0 °F 57.2 °F 94% 29.83 in 4.0 mi SSW 24.2 mph 35.7 mph N/A   Overcast
3:35 PM 59.0 °F 57.2 °F 94% 29.83 in 4.0 mi SSW 23.0 mph 31.1 mph N/A   Overcast
3:55 PM 59.0 °F 57.2 °F 94% 29.79 in 4.0 mi South 19.6 mph 27.6 mph N/A   Overcast
4:15 PM 59.0 °F 57.2 °F 94% 29.79 in 4.0 mi SSW 18.4 mph 23.0 mph N/A   Overcast
4:35 PM 59.0 °F 57.2 °F 94% 29.84 in 3.0 mi SSW 16.1 mph 28.8 mph 0.01 in Rain Light Rain
4:55 PM 59.0 °F 55.4 °F 88% 29.82 in 4.0 mi SSW 19.6 mph 25.3 mph 0.01 in Rain Rain
5:15 PM 59.0 °F 57.2 °F 94% 29.87 in 4.0 mi SSW 18.4 mph 27.6 mph N/A   Mostly Cloudy
5:35 PM 59.0 °F 57.2 °F 94% 29.82 in 5.0 mi SSW 15.0 mph 23.0 mph N/A   Scattered Clouds
5:55 PM 59.0 °F 57.2 °F 94% 29.82 in 4.0 mi South 13.8 mph 20.7 mph N/A   Overcast
6:15 PM 59.0 °F 57.2 °F 94% 29.83 in 2.5 mi South 13.8 mph 18.4 mph N/A Rain Rain
6:35 PM 59.0 °F 57.2 °F 94% 29.83 in 4.0 mi SSW 11.5 mph - N/A   Mostly Cloudy
6:55 PM 59.0 °F 57.2 °F 94% 29.84 in 4.0 mi SSW 10.4 mph - N/A Rain Rain
7:15 PM 59.0 °F 57.2 °F 94% 29.84 in 3.0 mi SW 12.7 mph 19.6 mph N/A   Overcast
7:35 PM 59.0 °F 57.2 °F 94% 29.85 in 4.0 mi SSW 16.1 mph - N/A   Overcast
7:55 PM 59.0 °F 57.2 °F 94% 29.85 in 5.0 mi SSW 15.0 mph - N/A   Overcast
8:15 PM 59.0 °F 57.2 °F 94% 29.86 in 4.0 mi SSW 15.0 mph - N/A   Mostly Cloudy
8:35 PM 57.2 °F 57.2 °F 100% 29.86 in 4.0 mi SSW 15.0 mph - N/A   Mostly Cloudy
8:55 PM 59.0 °F 57.2 °F 94% 29.87 in 3.0 mi South 15.0 mph 21.9 mph N/A   Overcast
9:15 PM 59.0 °F 57.2 °F 94% 29.88 in 5.0 mi SSW 16.1 mph 20.7 mph N/A   Overcast
9:35 PM 57.2 °F 57.2 °F 100% 29.89 in 5.0 mi South 11.5 mph 17.3 mph N/A   Mostly Cloudy
9:55 PM 57.2 °F 55.4 °F 94% 29.89 in 5.0 mi South 12.7 mph - N/A   Overcast
10:15 PM 59.0 °F 57.2 °F 94% 29.90 in 7.0 mi South 12.7 mph - N/A   Overcast
10:35 PM 59.0 °F 57.2 °F 94% 29.90 in 5.0 mi South 12.7 mph - N/A   Overcast
10:55 PM 59.0 °F 57.2 °F 94% 29.90 in 5.0 mi South 15.0 mph - N/A   Overcast
11:15 PM 57.2 °F 55.4 °F 94% 29.91 in 5.0 mi South 9.2 mph - N/A   Scattered Clouds
11:35 PM 57.2 °F 55.4 °F 94% 29.91 in 5.0 mi South 9.2 mph - N/A   Scattered Clouds
11:55 PM 57.2 °F 57.2 °F 100% 29.91 in 5.0 mi South 11.5 mph - N/A   Mostly Cloudy